Weather reports worldwide

Advertisment
Shawbury, United Kingdom (3414): temperature & dewpoint: 13.02.2018 06:00:00 - 19.02.2018 06:00:00 (GMT)Shawbury, United Kingdom (3414): temperature -20cm & temperature -100cm: 13.02.2018 06:00:00 - 19.02.2018 06:00:00 (GMT)Shawbury, United Kingdom (3414): wind speed & gusts: 13.02.2018 06:00:00 - 19.02.2018 06:00:00 (GMT)Shawbury, United Kingdom (3414): wind direction: 13.02.2018 06:00:00 - 19.02.2018 06:00:00 (GMT)Shawbury, United Kingdom (3414): reduced air pressure: 13.02.2018 06:00:00 - 19.02.2018 06:00:00 (GMT)Shawbury, United Kingdom (3414): visibility: 13.02.2018 06:00:00 - 19.02.2018 06:00:00 (GMT)Shawbury, United Kingdom (3414): sunshine duration: 13.02.2018 06:00:00 - 19.02.2018 06:00:00 (GMT)Shawbury, United Kingdom (3414): precipitation: 13.02.2018 06:00:00 - 19.02.2018 06:00:00 (GMT)
Date & Time tt [°C] td [°C] tt -20cm [°C] tt -100cm [°C] ff [km/h] ff [kn] fx [km/h] fx [kn] dd ppp [hPa] vv [km] sd [min] rr [mm]
19.02.2018 06:00:00 8,0 7,0 - - 11 6 - - W - 10 - -
19.02.2018 05:00:00 7,8 7,5 - - 11 6 - - W 1016,2 16 0 0,0
19.02.2018 04:00:00 7,4 7,1 - - 9 5 - - WSW 1016,5 12 0 0,0
19.02.2018 03:00:00 7,0 6,8 - - 2 1 - - S 1016,7 4,1 0 0,0
19.02.2018 02:00:00 7,1 6,9 - - 8 4 - - SSW 1017,0 3,8 0 0,2
19.02.2018 01:00:00 7,4 7,1 - - 4 2 - - SSW 1017,4 5 0 0,4
19.02.2018 00:00:00 7,2 6,8 - - 8 4 - - S 1017,7 3,7 - 0,2
18.02.2018 23:00:00 7,1 6,7 - - 9 5 - - S 1017,9 4,5 0 0,2
18.02.2018 22:00:00 7,1 6,7 - - 9 5 - - SSE 1018,1 4,9 0 0,4
18.02.2018 21:00:00 7,2 6,6 - - 11 6 - - SSE 1018,4 5 0 0,4
18.02.2018 20:00:00 7,4 6,5 - - 13 7 - - S 1018,6 7 0 0,2
18.02.2018 19:00:00 7,4 6,3 - - 11 6 - - SSE 1018,7 12 0 0,2
18.02.2018 18:00:00 7,7 6,1 - - 13 7 - - SSE 1018,9 10 0 0,0
18.02.2018 17:00:00 7,9 5,9 - - 11 6 - - SSE 1019,0 19 0 0,0
18.02.2018 16:00:00 8,0 5,8 - - 13 7 - - SSE 1019,2 20 0 0,0
18.02.2018 15:00:00 7,9 5,5 - - 11 6 - - S 1019,2 22 0 0,0
18.02.2018 14:00:00 7,9 5,2 - - 18 10 - - S 1019,3 27 0 0,0
18.02.2018 13:00:00 7,5 5,2 - - 18 10 - - S 1019,6 25 0 0,0
18.02.2018 12:00:00 7,5 5,2 - - 18 10 - - S 1020,0 27 0 0,0
18.02.2018 11:00:00 7,2 5,1 - - 16 9 - - S 1019,8 10 0 0,0
18.02.2018 10:00:00 6,1 4,8 - - 9 5 - - SE 1020,0 12 0 0,0
18.02.2018 09:00:00 5,2 4,3 3,7 5,5 9 5 - - SE 1020,2 7 0 0,0
18.02.2018 08:00:00 4,4 3,9 - - 11 6 - - ESE 1020,4 4,2 0 0,0
18.02.2018 07:00:00 3,7 3,1 - - 9 5 - - E 1020,4 4,9 0 0,0
18.02.2018 06:00:00 3,8 3,1 - - 8 4 - - SE 1020,5 9 0 0,0
18.02.2018 05:00:00 1,2 0,9 - - 2 1 - - N 1020,4 1,6 0 0,0
18.02.2018 04:00:00 2,8 2,7 - - 4 2 - - E 1020,0 6 0 0,0
18.02.2018 03:00:00 2,5 1,9 - - 4 2 - - NE 1020,8 7 0 0,0
18.02.2018 02:00:00 3,5 3,0 - - 4 2 - - WNW 1021,4 8 0 0,2
18.02.2018 01:00:00 4,1 2,3 - - 8 4 - - SE 1021,2 21 0 0,0
18.02.2018 00:00:00 2,5 1,2 - - 2 1 - - ESE 1021,3 20 - 0,0
17.02.2018 23:00:00 1,4 1,0 - - 4 2 - - E 1021,5 21 0 0,0
17.02.2018 22:00:00 1,0 0,2 - - 2 1 - - SSE 1021,2 21 0 0,0
17.02.2018 21:00:00 3,5 2,1 - - 0 0 - - N 1021,0 20 0 0,0
17.02.2018 20:00:00 6,2 3,2 - - 5 3 - - SSW 1020,9 35 0 0,0
17.02.2018 19:00:00 3,0 1,0 - - 5 3 - - WSW 1020,9 23 0 0,0
17.02.2018 18:00:00 7,4 1,5 - - 9 5 - - S 1020,3 29 12 0,0
17.02.2018 17:00:00 7,5 1,8 - - 11 6 - - SW 1020,1 35 18 0,0
17.02.2018 16:00:00 9,0 1,3 - - 15 8 - - SW 1019,8 35 36 0,0
17.02.2018 15:00:00 8,8 1,5 - - 11 6 - - SW 1019,8 35 18 0,0
17.02.2018 14:00:00 9,3 2,2 - - 16 9 - - SW 1019,9 35 42 0,0
17.02.2018 13:00:00 9,2 3,6 - - 18 10 - - SW 1020,2 35 36 0,0
17.02.2018 12:00:00 8,3 3,8 - - 22 12 - - SW 1020,6 10 48 0,0
17.02.2018 11:00:00 7,1 3,5 - - 18 10 - - SW 1020,1 10 0 0,0
17.02.2018 10:00:00 5,7 2,8 - - 16 9 - - SSW 1019,9 18 6 0,0
17.02.2018 09:00:00 4,9 2,7 3,4 5,5 15 8 - - S 1019,7 19 0 0,0
17.02.2018 08:00:00 4,7 2,4 - - 11 6 - - S 1019,4 10 0 0,0
17.02.2018 07:00:00 4,5 2,3 - - 16 9 - - SSE 1018,9 20 0 0,0
17.02.2018 06:00:00 4,6 1,9 - - 15 8 - - S 1019,0 23 0 0,0
17.02.2018 05:00:00 4,1 1,9 - - 11 6 - - SSE 1019,0 22 0 0,0
17.02.2018 04:00:00 3,9 1,9 - - 13 7 - - SSE 1019,3 21 0 0,0
17.02.2018 03:00:00 4,0 1,8 - - 9 5 - - SSE 1019,7 22 0 0,0
17.02.2018 02:00:00 4,0 1,8 - - 15 8 - - SE 1020,0 22 0 0,0
17.02.2018 01:00:00 4,1 1,6 - - 5 3 - - SSE 1020,5 23 0 0,0
17.02.2018 00:00:00 4,0 1,4 - - 8 4 - - ESE 1020,7 24 - 0,0
16.02.2018 23:00:00 4,7 1,3 - - 13 7 - - SSE 1020,7 27 0 0,0
16.02.2018 22:00:00 4,6 0,6 - - 16 9 - - SSE 1021,0 10 0 0,0
16.02.2018 21:00:00 3,8 0,2 - - 11 6 - - ESE 1021,0 28 0 0,0
16.02.2018 20:00:00 2,7 -0,6 - - 2 1 - - SW 1021,2 29 0 0,0
16.02.2018 19:00:00 5,4 0,2 - - 13 7 - - SSE 1021,3 30 0 0,0
16.02.2018 18:00:00 5,9 1,5 - - 9 5 - - SSE 1021,6 26 0 0,0
16.02.2018 17:00:00 7,4 0,7 - - 15 8 - - S 1021,3 10 0 0,0
16.02.2018 16:00:00 8,3 0,4 - - 15 8 - - S 1021,5 10 48 0,0
16.02.2018 15:00:00 8,9 0,6 - - 24 13 - - SSW 1022,1 10 30 0,0
16.02.2018 14:00:00 8,6 1,4 - - 28 15 - - SW 1022,5 10 54 0,0
16.02.2018 13:00:00 8,4 1,1 - - 24 13 - - SSW 1022,9 10 60 0,0
16.02.2018 12:00:00 7,7 1,2 - - 18 10 - - SSW 1023,4 10 48 0,0
16.02.2018 11:00:00 6,4 1,3 - - 11 6 - - SSE 1023,6 10 54 0,0
16.02.2018 10:00:00 3,7 -0,1 - - 8 4 - - S 1023,8 10 48 0,0
16.02.2018 09:00:00 2,1 -0,8 3,2 5,7 8 4 - - SSW 1023,1 10 42 0,0
16.02.2018 08:00:00 0,7 -0,3 - - 8 4 - - SSW 1022,7 10 0 0,0
16.02.2018 07:00:00 0,8 -1,9 - - 9 5 - - S 1022,4 10 0 0,0
16.02.2018 06:00:00 1,6 -1,8 - - 5 3 - - ESE 1021,7 10 0 0,0
16.02.2018 05:00:00 0,5 -1,0 - - 8 4 - - NE 1021,0 10 0 0,0
16.02.2018 04:00:00 0,9 -0,9 - - 11 6 - - SW 1020,4 10 0 0,0
16.02.2018 03:00:00 1,5 -0,9 - - 15 8 - - SSW 1020,1 10 0 0,0
16.02.2018 02:00:00 1,8 -1,6 - - 18 10 - - WSW 1019,1 10 0 0,0
16.02.2018 01:00:00 0,8 -1,9 - - 16 9 - - WSW 1018,5 26 0 0,0
16.02.2018 00:00:00 0,6 -1,3 - - 11 6 - - W 1017,7 10 - 0,0
15.02.2018 23:00:00 2,0 -2,0 - - 15 8 - - SSW 1017,1 10 0 0,0
15.02.2018 22:00:00 1,8 -0,5 - - 9 5 - - SW 1016,4 10 0 0,0
15.02.2018 21:00:00 2,8 0,2 - - 24 13 - - SW 1015,0 10 0 0,0
15.02.2018 20:00:00 2,9 -0,8 - - 18 10 - - SW 1014,7 10 0 0,0
15.02.2018 19:00:00 3,3 -0,3 - - 15 8 - - SSW 1013,9 10 0 0,0
15.02.2018 18:00:00 4,2 -2,6 - - 21 11 - - SW 1012,7 10 0 0,0
15.02.2018 17:00:00 5,2 -2,3 - - 28 15 48 26 WSW 1011,9 10 54 0,0
15.02.2018 16:00:00 5,9 -2,1 - - 42 23 61 33 WSW 1010,7 10 30 0,0
15.02.2018 15:00:00 5,2 -0,7 - - 31 17 65 35 WSW 1010,0 10 36 0,0
15.02.2018 14:00:00 7,1 -2,4 - - 31 17 61 33 WSW 1009,3 10 30 0,0
15.02.2018 13:00:00 6,9 -4,4 - - 39 21 67 36 WSW 1008,8 10 54 0,0
15.02.2018 12:00:00 7,0 -3,8 - - 41 22 61 33 WSW 1008,0 10 54 0,0
15.02.2018 11:00:00 6,4 -2,9 - - 39 21 52 28 WSW 1007,3 10 60 0,0
15.02.2018 10:00:00 5,9 -1,5 - - 29 16 46 25 WSW 1006,3 10 54 0,0
15.02.2018 09:00:00 4,8 -0,1 3,2 5,7 21 11 - - SW 1005,1 10 30 0,0
15.02.2018 08:00:00 2,6 0,6 - - 8 4 - - SW 1004,2 10 0 0,0
15.02.2018 07:00:00 2,4 1,0 - - 11 6 - - WSW 1002,9 10 0 0,0
15.02.2018 06:00:00 4,6 2,7 - - 11 6 - - W 1001,5 10 0 0,0
15.02.2018 05:00:00 5,7 3,2 - - 21 11 - - WSW 1000,1 30 0 0,2
15.02.2018 04:00:00 5,3 4,1 - - 9 5 - - SSE 998,7 16 0 0,0
15.02.2018 03:00:00 5,1 4,1 - - 4 2 - - NW 998,4 5 0 0,0
15.02.2018 02:00:00 5,4 3,9 - - 9 5 - - ESE 998,0 15 0 0,0
15.02.2018 01:00:00 6,1 4,5 - - 9 5 - - SE 997,9 16 0 0,0
15.02.2018 00:00:00 5,7 4,8 - - 9 5 - - SSE 997,8 10 - 0,0
14.02.2018 23:00:00 6,1 5,4 - - 11 6 - - SSE 997,0 10 0 0,0
14.02.2018 22:00:00 6,3 5,6 - - 13 7 - - SSE 996,7 10 0 0,0
14.02.2018 21:00:00 6,6 5,7 - - 8 4 - - SE 996,2 10 0 0,0
14.02.2018 20:00:00 6,9 5,7 - - 13 7 - - SSE 995,9 10 0 0,4
14.02.2018 19:00:00 6,6 5,6 - - 24 13 - - S 995,7 10 0 0,8
14.02.2018 18:00:00 6,5 4,9 - - 22 12 - - S 995,5 10 0 0,0
14.02.2018 17:00:00 6,0 4,3 - - 26 14 48 26 SSE 995,1 10 0 0,0
14.02.2018 16:00:00 6,0 3,8 - - 26 14 50 27 S 995,9 10 0 0,0
14.02.2018 15:00:00 5,8 3,0 - - 35 19 55 30 S 996,3 10 0 0,0
14.02.2018 14:00:00 5,1 2,7 - - 28 15 50 27 S 996,6 10 0 0,0
14.02.2018 13:00:00 4,2 1,7 - - 31 17 - - S 997,7 10 0 0,4
14.02.2018 12:00:00 3,2 1,3 - - 26 14 - - SSE 997,8 8 0 0,8
14.02.2018 11:00:00 2,8 0,5 - - 16 9 - - SSE 998,8 10 0 0,0
14.02.2018 10:00:00 2,4 -1,3 - - 26 14 - - SSE 999,7 10 0 -
14.02.2018 09:00:00 2,1 -2,7 3,2 5,7 22 12 - - SSE 1000,5 10 0 0,0
14.02.2018 08:00:00 2,0 -3,1 - - 18 10 - - SSE 1001,3 10 0 0,0
14.02.2018 07:00:00 1,2 -2,0 - - 16 9 - - SSE 1002,2 10 0 0,0
14.02.2018 06:00:00 0,5 -2,3 - - 16 9 - - SE 1002,8 10 0 0,0
14.02.2018 05:00:00 0,0 -2,4 - - 16 9 - - SSE 1003,5 10 0 0,0
14.02.2018 04:00:00 -0,3 -2,4 - - 8 4 - - SSE 1004,2 29 0 0,0
14.02.2018 03:00:00 -0,3 -2,1 - - 9 5 - - SE 1004,9 23 0 0,0
14.02.2018 02:00:00 -3,7 -4,4 - - 2 1 - - ESE 1006,2 10 0 0,0
14.02.2018 01:00:00 -3,7 -4,3 - - 4 2 - - NE 1006,5 15 0 0,0
14.02.2018 00:00:00 -2,9 -4,0 - - 4 2 - - S 1006,2 20 - 0,0
13.02.2018 23:00:00 -3,7 -5,6 - - 9 5 - - WSW 1006,2 10 0 0,0
13.02.2018 22:00:00 -2,4 -3,8 - - 13 7 - - WSW 1006,6 10 0 0,0
13.02.2018 21:00:00 -2,0 -3,8 - - 13 7 - - WSW 1006,3 10 0 0,0
13.02.2018 20:00:00 -0,9 -2,9 - - 11 6 - - W 1005,6 10 0 0,0
13.02.2018 19:00:00 1,5 -2,2 - - 11 6 - - W 1005,1 10 0 0,0
13.02.2018 18:00:00 2,6 -2,3 - - 11 6 - - WNW 1003,9 10 0 0,0
13.02.2018 17:00:00 3,7 -0,4 - - 11 6 - - NNW 1002,7 10 24 0,0
13.02.2018 16:00:00 3,7 0,7 - - 26 14 54 29 N 1001,1 10 24 0,0
13.02.2018 15:00:00 5,1 -0,1 - - 22 12 - - NNW 999,8 10 0 0,0
13.02.2018 14:00:00 4,4 1,6 - - 18 10 - - NW 999,0 10 0 0,0
13.02.2018 13:00:00 3,5 -0,5 - - 29 16 63 34 N 997,5 10 0 0,2
13.02.2018 12:00:00 3,6 2,2 - - 13 7 - - SW 996,1 10 0 0,8
13.02.2018 11:00:00 4,4 2,3 - - 13 7 - - S 994,7 10 0 0,2
13.02.2018 10:00:00 4,3 2,6 - - 26 14 - - SSE 993,8 10 0 0,6
13.02.2018 09:00:00 4,4 2,3 3,4 5,7 28 15 46 25 SSE 993,6 8 0 0,2
13.02.2018 08:00:00 4,4 1,7 - - 29 16 48 26 SSE 993,7 10 0 0,2
13.02.2018 07:00:00 4,3 1,4 - - 24 13 46 25 SSE 994,1 10 0 0,2
13.02.2018 06:00:00 4,5 0,6 - - 28 15 - - SSE 994,8 10 0 0,0

tt = temperature
td = dewpoint
tt -20cm = temperature -20cm
tt -100cm = temperature -100cm
ff = wind speed
fx = gusts
dd = wind direction
ppp = reduced air pressure
vv = visibility
sd = sunshine duration
rr = precipitation

Next stations